Regional Weather Roundup
Issued by NWS

Home | Current Version | Previous Version | Text Only | Print | Product List | Glossary Off
Versions: 1 2 3 4 5 6 7 8 9 10 11 12 13 14 15 16 17 18 19 20 21 22 23 24 25 26

000
ASUS45 KCYS 121810
RWRWY

WYOMING REGIONAL WEATHER ROUNDUP
NATIONAL WEATHER SERVICE CHEYENNE WY
1100 AM MST TUE DEC 12 2017

NOTE:  "FAIR" INDICATES FEW OR NO CLOUDS BELOW 12,000 FEET
WITH NO SIGNIFICANT WEATHER AND/OR OBSTRUCTIONS TO VISIBILITY.

WYZ001-121900-
YELLOWSTONE NATIONAL PARK

CITY           SKY/WX    TMP DP  RH WIND       PRES   REMARKS
LK YELLOWSTONE   N/A     23  20  88 CALM      30.52F
6HR MIN TEMP:   3; 6HR MAX TEMP:  23;

W YELLOWSTONE  NOT AVBL

$$
WYZ002>013-054>058-071-098>099-121900-
NORTHERN WYOMING

CITY           SKY/WX    TMP DP  RH WIND       PRES   REMARKS
JACKSON        FAIR      30  17  58 CALM      30.56F
CODY           FAIR      48  20  32 N7        30.26F
GREYBULL       FAIR      28  15  58 CALM      30.32F
6HR MIN TEMP:  10; 6HR MAX TEMP:  28;

WORLAND        FAIR      34  23  64 SW6       30.31F WCI  29
6HR MIN TEMP:  12; 6HR MAX TEMP:  34;

SHERIDAN       FAIR      56  28  34 CALM      30.15F
6HR MIN TEMP:  22; 6HR MAX TEMP:  56;

BUFFALO        FAIR      61  17  18 S6        30.19F
6HR MIN TEMP:  36; 6HR MAX TEMP:  61;

GILLETTE       FAIR      56  19  23 SW14      30.16F
6HR MIN TEMP:  34; 6HR MAX TEMP:  57;

HULETT         FAIR      46  19  34 SW10      30.16F
NEWCASTLE      FAIR      45  18  33 CALM      30.21F

$$
WYZ014>020-022>026-101>103-121900-
CENTRAL WYOMING

CITY           SKY/WX    TMP DP  RH WIND       PRES   REMARKS
BIG PINEY      FAIR      36  10  34 SW3       30.49F
6HR MIN TEMP:   9; 6HR MAX TEMP:  36;

PINEDALE       FAIR      41  14  33 NW6       30.49F
DUBOIS         FAIR      48   0  13 N12       30.42F
LANDER         FAIR      30  19  63 NW5       30.35F WCI  25
6HR MIN TEMP:  16; 6HR MAX TEMP:  30;

RIVERTON       FAIR      32  20  61 N3        30.37F
6HR MIN TEMP:  14; 6HR MAX TEMP:  32;

CASPER         FAIR      43  17  35 SW24G32   30.32F
6HR MIN TEMP:  34; 6HR MAX TEMP:  43;

DOUGLAS        FAIR      52  24  33 NW14      30.25F
6HR MIN TEMP:  21; 6HR MAX TEMP:  52;


$$
WYZ021-027>030-104>119-121900-
SOUTHERN WYOMING

CITY           SKY/WX    TMP DP  RH WIND       PRES   REMARKS
EVANSTON         N/A    N/A N/A N/A MISG      30.52F
6HR MIN TEMP:  29; 6HR MAX TEMP:  39;

FORT BRIDGER   FAIR      51  14  22 W10       30.54S
ROCK SPRINGS   FAIR      39   9  29 W8        30.48F WCI  33
6HR MIN TEMP:  21; 6HR MAX TEMP:  39;

DIXON          FAIR      29  15  56 NE3       30.53F
RAWLINS        FAIR      39  18  42 S3        30.45F
6HR MIN TEMP:  14; 6HR MAX TEMP:  40;

SARATOGA       FAIR      37  21  52 S8        30.47F WCI  31
LARAMIE        FAIR      52  13  21 W18       30.37F
6HR MIN TEMP:  14; 6HR MAX TEMP:  52;

CHEYENNE       FAIR      59  15  18 NW15      30.31F
6HR MIN TEMP:  27; 6HR MAX TEMP:  59;

TORRINGTON     FAIR      52  19  27 NW9       30.23F
6HR MIN TEMP:  19; 6HR MAX TEMP:  52;

PINE BLUFFS    FAIR      61  14  16 NW18G26   30.27F

$$




USA.gov is the U.S. government's official web portal to all federal, state and local government web resources and services.